WON2304 WICC-WAHI

Flight info

Callsign WON2304
Flight time 0h 52m
Altitude 17000
Route CLP
Aircraft AT76/M-SDFGIRY/S

Departure

Time 2026-04-23 08:45
Airport Husein Sastranegara International Airport (WICC)

Arrival

Time 2026-04-23 09:37
Airport Yogyakarta International Airport (WAHI)
Time Latitude Longitude Altitude Speed Heading
2026-04-23 08:44 -7.02030 107.84852 8475 ft 200 kts 94°
2026-04-23 08:45 -7.02170 107.86248 8736 ft 201 kts 95°
2026-04-23 08:45 -7.02339 107.87650 9005 ft 202 kts 96°
2026-04-23 08:45 -7.02517 107.89057 9252 ft 203 kts 96°
2026-04-23 08:45 -7.02701 107.90468 9495 ft 204 kts 97°
2026-04-23 08:46 -7.02890 107.91886 9726 ft 205 kts 97°
2026-04-23 08:46 -7.03082 107.93308 9935 ft 206 kts 96°
2026-04-23 08:46 -7.03272 107.94736 10133 ft 207 kts 96°
2026-04-23 08:46 -7.03464 107.96159 10334 ft 208 kts 97°
2026-04-23 08:47 -7.03612 107.97603 10528 ft 208 kts 85°
2026-04-23 08:47 -7.03356 107.99028 10708 ft 208 kts 75°
2026-04-23 08:47 -7.02994 108.00438 10913 ft 208 kts 74°
2026-04-23 08:47 -7.02631 108.01853 11120 ft 209 kts 75°
2026-04-23 08:48 -7.02290 108.03278 11320 ft 210 kts 76°
2026-04-23 08:48 -7.01976 108.04716 11526 ft 211 kts 77°
2026-04-23 08:48 -7.01671 108.06165 11733 ft 212 kts 77°
2026-04-23 08:48 -7.01371 108.07616 11942 ft 212 kts 77°
2026-04-23 08:49 -7.01065 108.09077 12138 ft 213 kts 77°
2026-04-23 08:49 -7.00758 108.10538 12343 ft 214 kts 77°
2026-04-23 08:49 -7.00450 108.12002 12533 ft 214 kts 77°
2026-04-23 08:49 -7.00142 108.13471 12720 ft 215 kts 77°
2026-04-23 08:50 -6.99835 108.14950 12889 ft 216 kts 77°
2026-04-23 08:50 -6.99524 108.16429 13069 ft 217 kts 77°
2026-04-23 08:50 -6.99208 108.17914 13254 ft 217 kts 77°
2026-04-23 08:50 -6.99073 108.19425 13288 ft 223 kts 100°
2026-04-23 08:51 -6.99762 108.20853 13239 ft 234 kts 127°
2026-04-23 08:51 -7.00789 108.22121 13286 ft 239 kts 131°
2026-04-23 08:51 -7.01886 108.23391 13354 ft 242 kts 131°
2026-04-23 08:51 -7.02989 108.24683 13434 ft 244 kts 130°
2026-04-23 08:52 -7.04064 108.26011 13514 ft 245 kts 128°
2026-04-23 08:52 -7.05117 108.27360 13609 ft 246 kts 128°
2026-04-23 08:52 -7.06174 108.28714 13703 ft 245 kts 128°
2026-04-23 08:52 -7.07199 108.30028 14036 ft 232 kts 128°
2026-04-23 08:53 -7.08175 108.31279 14332 ft 224 kts 128°
2026-04-23 08:53 -7.09139 108.32513 14489 ft 224 kts 128°
2026-04-23 08:53 -7.10103 108.33747 14646 ft 223 kts 128°
2026-04-23 08:53 -7.11069 108.34981 14738 ft 226 kts 128°
2026-04-23 08:54 -7.12049 108.36240 14803 ft 229 kts 128°
2026-04-23 08:54 -7.13034 108.37499 14838 ft 234 kts 128°
2026-04-23 08:54 -7.14064 108.38819 14839 ft 239 kts 128°
2026-04-23 08:54 -7.15102 108.40148 14837 ft 243 kts 128°
2026-04-23 08:55 -7.16155 108.41497 14837 ft 247 kts 128°
2026-04-23 08:55 -7.17219 108.42863 14837 ft 249 kts 128°
2026-04-23 08:55 -7.17933 108.43776 14836 ft 251 kts 128°
2026-04-23 08:55 -7.19380 108.45631 14835 ft 253 kts 128°
2026-04-23 08:56 -7.20454 108.47007 14833 ft 254 kts 128°
2026-04-23 08:56 -7.21547 108.48411 14833 ft 255 kts 128°
2026-04-23 08:56 -7.22645 108.49817 14872 ft 254 kts 128°
2026-04-23 08:56 -7.23355 108.50727 15091 ft 244 kts 128°
2026-04-23 08:57 -7.24715 108.52472 15505 ft 230 kts 128°
2026-04-23 08:57 -7.25696 108.53734 15694 ft 228 kts 128°
2026-04-23 08:57 -7.26345 108.54568 15786 ft 228 kts 128°
2026-04-23 08:57 -7.27328 108.55824 15913 ft 229 kts 128°
2026-04-23 08:58 -7.28312 108.57083 16041 ft 229 kts 128°
2026-04-23 08:58 -7.29299 108.58349 16169 ft 230 kts 128°
2026-04-23 08:58 -7.30286 108.59616 16286 ft 230 kts 128°
2026-04-23 08:58 -7.31275 108.60886 16407 ft 230 kts 128°
2026-04-23 08:59 -7.32266 108.62157 16520 ft 231 kts 128°
2026-04-23 08:59 -7.33255 108.63427 16655 ft 230 kts 128°
2026-04-23 08:59 -7.34249 108.64702 16734 ft 232 kts 128°
2026-04-23 08:59 -7.35252 108.65987 16767 ft 235 kts 128°
2026-04-23 09:00 -7.36270 108.67295 16789 ft 238 kts 128°
2026-04-23 09:00 -7.37303 108.68621 16795 ft 242 kts 128°
2026-04-23 09:00 -7.38335 108.69945 16805 ft 245 kts 128°
2026-04-23 09:00 -7.39392 108.71300 16801 ft 247 kts 128°
2026-04-23 09:01 -7.40459 108.72673 16794 ft 249 kts 128°
2026-04-23 09:01 -7.41534 108.74052 16797 ft 251 kts 128°
2026-04-23 09:01 -7.42614 108.75438 16795 ft 252 kts 128°
2026-04-23 09:01 -7.43702 108.76836 16797 ft 254 kts 128°
2026-04-23 09:02 -7.44791 108.78235 16866 ft 252 kts 128°
2026-04-23 09:02 -7.45867 108.79618 16962 ft 250 kts 128°
2026-04-23 09:02 -7.46943 108.81000 16963 ft 252 kts 128°
2026-04-23 09:02 -7.48029 108.82393 16955 ft 253 kts 128°
2026-04-23 09:03 -7.49119 108.83795 16921 ft 256 kts 128°
2026-04-23 09:03 -7.50226 108.85215 16857 ft 259 kts 128°
2026-04-23 09:03 -7.51343 108.86651 16827 ft 261 kts 128°
2026-04-23 09:03 -7.52463 108.88090 16821 ft 261 kts 128°
2026-04-23 09:04 -7.53568 108.89512 16817 ft 261 kts 128°
2026-04-23 09:04 -7.54689 108.90952 16799 ft 261 kts 128°
2026-04-23 09:04 -7.55814 108.92398 16791 ft 261 kts 128°
2026-04-23 09:04 -7.56937 108.93843 16797 ft 261 kts 128°
2026-04-23 09:05 -7.58058 108.95290 16793 ft 261 kts 128°
2026-04-23 09:05 -7.59173 108.96733 16798 ft 261 kts 128°
2026-04-23 09:05 -7.60290 108.98180 16789 ft 261 kts 128°
2026-04-23 09:05 -7.61405 108.99626 16791 ft 261 kts 128°
2026-04-23 09:06 -7.62519 109.01071 16789 ft 261 kts 128°
2026-04-23 09:06 -7.63618 109.02496 16790 ft 261 kts 128°
2026-04-23 09:06 -7.64731 109.03941 16791 ft 261 kts 128°
2026-04-23 09:06 -7.65844 109.05386 16793 ft 261 kts 128°
2026-04-23 09:07 -7.66946 109.06836 16784 ft 260 kts 124°
2026-04-23 09:07 -7.67520 109.08530 16792 ft 257 kts 90°
2026-04-23 09:07 -7.67182 109.10274 16787 ft 253 kts 72°
2026-04-23 09:07 -7.66691 109.11984 16785 ft 254 kts 75°
2026-04-23 09:08 -7.66320 109.13727 16782 ft 255 kts 78°
2026-04-23 09:08 -7.66098 109.15501 16787 ft 256 kts 86°
2026-04-23 09:08 -7.66101 109.17293 16787 ft 256 kts 93°
2026-04-23 09:08 -7.66295 109.19081 16789 ft 258 kts 97°
2026-04-23 09:09 -7.66560 109.20870 16788 ft 258 kts 98°
2026-04-23 09:09 -7.66833 109.22661 16790 ft 258 kts 98°
2026-04-23 09:09 -7.67090 109.24457 16782 ft 258 kts 97°
2026-04-23 09:09 -7.67318 109.26233 16787 ft 258 kts 97°
2026-04-23 09:10 -7.67544 109.28035 16788 ft 258 kts 96°
2026-04-23 09:10 -7.67992 109.31637 16736 ft 260 kts 96°
2026-04-23 09:10 -7.68219 109.33456 16683 ft 262 kts 97°
2026-04-23 09:11 -7.68445 109.35286 16636 ft 263 kts 96°
2026-04-23 09:11 -7.68673 109.37120 16575 ft 265 kts 96°
2026-04-23 09:11 -7.68902 109.38969 16522 ft 266 kts 96°
2026-04-23 09:11 -7.69133 109.40820 16473 ft 267 kts 96°
2026-04-23 09:12 -7.69364 109.42676 16416 ft 268 kts 96°
2026-04-23 09:12 -7.69594 109.44518 16362 ft 268 kts 97°
2026-04-23 09:12 -7.69826 109.46387 16310 ft 269 kts 96°
2026-04-23 09:12 -7.70059 109.48259 16254 ft 269 kts 96°
2026-04-23 09:13 -7.70291 109.50133 16200 ft 270 kts 97°
2026-04-23 09:13 -7.70523 109.52008 16144 ft 270 kts 96°
2026-04-23 09:13 -7.70756 109.53889 16089 ft 270 kts 96°
2026-04-23 09:13 -7.70988 109.55774 16037 ft 271 kts 96°
2026-04-23 09:14 -7.71223 109.57657 15982 ft 271 kts 96°
2026-04-23 09:14 -7.71456 109.59541 15927 ft 271 kts 96°
2026-04-23 09:14 -7.71687 109.61411 15874 ft 271 kts 96°
2026-04-23 09:14 -7.71921 109.63298 15817 ft 272 kts 97°
2026-04-23 09:15 -7.72154 109.65188 15763 ft 272 kts 96°
2026-04-23 09:15 -7.72388 109.67080 15711 ft 272 kts 97°
2026-04-23 09:15 -7.72623 109.68972 15658 ft 272 kts 97°
2026-04-23 09:15 -7.72857 109.70868 15604 ft 272 kts 97°
2026-04-23 09:16 -7.73092 109.72764 15548 ft 272 kts 97°
2026-04-23 09:16 -7.73326 109.74659 15488 ft 273 kts 96°
2026-04-23 09:16 -7.73559 109.76556 15435 ft 273 kts 97°
2026-04-23 09:16 -7.73794 109.78459 15384 ft 273 kts 97°
2026-04-23 09:17 -7.74029 109.80362 15330 ft 273 kts 96°
2026-04-23 09:17 -7.74263 109.82265 15273 ft 274 kts 97°
2026-04-23 09:17 -7.74498 109.84172 15216 ft 274 kts 97°
2026-04-23 09:17 -7.74734 109.86081 15158 ft 274 kts 96°
2026-04-23 09:18 -7.74968 109.87989 15098 ft 274 kts 97°
2026-04-23 09:18 -7.75204 109.89896 15045 ft 274 kts 97°
2026-04-23 09:18 -7.75437 109.91787 14991 ft 275 kts 96°
2026-04-23 09:18 -7.75672 109.93701 14936 ft 275 kts 97°
2026-04-23 09:19 -7.75943 109.95614 14758 ft 277 kts 104°
2026-04-23 09:19 -7.76897 109.97309 14502 ft 284 kts 135°
2026-04-23 09:19 -7.78590 109.98305 14242 ft 285 kts 166°
2026-04-23 09:19 -7.80548 109.98333 13995 ft 281 kts 195°
2026-04-23 09:20 -7.82213 109.97405 13753 ft 272 kts 224°
2026-04-23 09:20 -7.83596 109.96160 13491 ft 264 kts 214°
2026-04-23 09:20 -7.85193 109.95318 13226 ft 262 kts 204°
2026-04-23 09:20 -7.86915 109.94730 12987 ft 260 kts 197°
2026-04-23 09:21 -7.88646 109.94293 12880 ft 252 kts 194°
2026-04-23 09:21 -7.90328 109.93891 12840 ft 243 kts 195°
2026-04-23 09:21 -7.91918 109.93424 12821 ft 234 kts 197°
2026-04-23 09:21 -7.93471 109.93022 12811 ft 227 kts 195°
2026-04-23 09:22 -7.94997 109.92646 12804 ft 227 kts 196°
2026-04-23 09:22 -7.96548 109.92228 12802 ft 233 kts 199°
2026-04-23 09:22 -7.98123 109.91779 12804 ft 238 kts 196°
2026-04-23 09:22 -7.99727 109.91373 12809 ft 242 kts 195°
2026-04-23 09:23 -8.01370 109.90936 12806 ft 245 kts 198°
2026-04-23 09:23 -8.03025 109.90471 12743 ft 251 kts 196°
2026-04-23 09:23 -8.04756 109.90031 12431 ft 258 kts 195°
2026-04-23 09:23 -8.06515 109.89590 12110 ft 264 kts 195°
2026-04-23 09:24 -8.08335 109.89136 11782 ft 274 kts 195°
2026-04-23 09:24 -8.10203 109.88664 11450 ft 277 kts 195°
2026-04-23 09:24 -8.12071 109.88178 11112 ft 278 kts 195°
2026-04-23 09:24 -8.13942 109.87687 10783 ft 278 kts 195°
2026-04-23 09:25 -8.15822 109.87248 10437 ft 276 kts 186°
2026-04-23 09:25 -8.17699 109.87574 10098 ft 276 kts 154°
2026-04-23 09:25 -8.19142 109.88800 9772 ft 273 kts 123°
2026-04-23 09:25 -8.19769 109.90566 9438 ft 266 kts 93°
2026-04-23 09:26 -8.19806 109.92390 9114 ft 262 kts 89°
2026-04-23 09:26 -8.19790 109.94221 8790 ft 260 kts 88°
2026-04-23 09:26 -8.19864 109.96063 8461 ft 259 kts 93°
2026-04-23 09:26 -8.19749 109.97816 8127 ft 253 kts 69°
2026-04-23 09:27 -8.18731 109.99226 7808 ft 250 kts 36°
2026-04-23 09:27 -8.17150 109.99887 7500 ft 245 kts 13°
2026-04-23 09:27 -8.15476 110.00220 7190 ft 245 kts
2026-04-23 09:27 -8.13799 110.00508 6898 ft 243 kts
2026-04-23 09:28 -8.12147 110.00585 6599 ft 236 kts 347°
2026-04-23 09:28 -8.10644 109.99976 6315 ft 231 kts 333°
2026-04-23 09:28 -8.09279 109.99169 6025 ft 229 kts 329°
2026-04-23 09:28 -8.07939 109.98311 5716 ft 226 kts 329°
2026-04-23 09:29 -8.06618 109.97459 5424 ft 225 kts 329°
2026-04-23 09:29 -8.05297 109.96627 5167 ft 221 kts 330°
2026-04-23 09:29 -8.03993 109.95834 4910 ft 219 kts 331°
2026-04-23 09:29 -8.02685 109.95053 4620 ft 217 kts 331°
2026-04-23 09:30 -8.01393 109.94279 4317 ft 215 kts 330°
2026-04-23 09:30 -8.00109 109.93510 4027 ft 214 kts 331°
2026-04-23 09:30 -7.98860 109.92762 3737 ft 201 kts 331°
2026-04-23 09:30 -7.97690 109.92063 3467 ft 190 kts 332°
2026-04-23 09:31 -7.96576 109.91394 3217 ft 183 kts 331°
2026-04-23 09:31 -7.95509 109.90756 2972 ft 178 kts 331°
2026-04-23 09:31 -7.94455 109.90127 2699 ft 177 kts 332°
2026-04-23 09:31 -7.93390 109.89502 2578 ft 174 kts 336°
2026-04-23 09:32 -7.92226 109.89152 2422 ft 177 kts 350°
2026-04-23 09:32 -7.90999 109.88907 2270 ft 182 kts 351°
2026-04-23 09:32 -7.89750 109.88669 2125 ft 182 kts 353°
2026-04-23 09:32 -7.88560 109.88925 1995 ft 178 kts 36°
2026-04-23 09:33 -7.87662 109.89779 1861 ft 179 kts 49°
2026-04-23 09:33 -7.86875 109.90759 1726 ft 181 kts 53°
2026-04-23 09:33 -7.86137 109.91787 1629 ft 178 kts 57°
2026-04-23 09:33 -7.85907 109.92940 1580 ft 169 kts 105°
2026-04-23 09:34 -7.86622 109.93812 1519 ft 163 kts 149°
2026-04-23 09:34 -7.87418 109.94535 1449 ft 157 kts 116°
2026-04-23 09:34 -7.87764 109.95563 1394 ft 154 kts 107°
2026-04-23 09:34 -7.87938 109.96604 1334 ft 151 kts 82°
2026-04-23 09:35 -7.87709 109.97607 1353 ft 139 kts 85°
2026-04-23 09:35 -7.87870 109.98491 1319 ft 116 kts 112°
2026-04-23 09:35 -7.88141 109.99224 1122 ft 109 kts 111°
2026-04-23 09:35 -7.88411 109.99941 983 ft 112 kts 112°
2026-04-23 09:36 -7.88686 110.00697 862 ft 115 kts 111°
2026-04-23 09:36 -7.88939 110.01439 638 ft 112 kts 113°
2026-04-23 09:36 -7.89224 110.02169 583 ft 113 kts 112°
2026-04-23 09:36 -7.89502 110.02897 386 ft 110 kts 114°
2026-04-23 09:37 -7.89762 110.03619 199 ft 108 kts 113°
2026-04-23 09:37 -7.90022 110.04328 63 ft 107 kts 112°
2026-04-23 09:37 -7.90269 110.04977 27 ft 74 kts 109°
2026-04-23 09:37 -7.90365 110.05261 27 ft 32 kts 111°
2026-04-23 09:38 -7.90430 110.05447 30 ft 23 kts 110°
2026-04-23 09:38 -7.90479 110.05579 33 ft 22 kts 112°
2026-04-23 09:38 -7.90545 110.05749 33 ft 30 kts 117°
2026-04-23 09:38 -7.90613 110.05945 33 ft 28 kts 110°
2026-04-23 09:39 -7.90662 110.06112 30 ft 22 kts 97°
2026-04-23 09:39 -7.90660 110.06248 31 ft 17 kts 80°
2026-04-23 09:39 -7.90635 110.06355 31 ft 15 kts 79°
2026-04-23 09:39 -7.90612 110.06453 30 ft 14 kts 58°
2026-04-23 09:40 -7.90528 110.06497 32 ft 12 kts 21°
2026-04-23 09:40 -7.90456 110.06497 34 ft 11 kts 311°
2026-04-23 09:40 -7.90425 110.06423 34 ft 12 kts 290°
2026-04-23 09:40 -7.90396 110.06345 34 ft 12 kts 290°
2026-04-23 09:41 -7.90366 110.06266 34 ft 12 kts 291°
2026-04-23 09:41 -7.90335 110.06181 34 ft 13 kts 289°
2026-04-23 09:41 -7.90301 110.06090 34 ft 14 kts 290°
2026-04-23 09:41 -7.90268 110.06001 34 ft 8 kts 298°
2026-04-23 09:42 -7.90246 110.06002 34 ft 4 kts 25°
2026-04-23 09:42 -7.90207 110.06018 34 ft 8 kts 19°
2026-04-23 09:42 -7.90163 110.06034 34 ft 0 kts 19°
2026-04-23 10:31 -7.90162 110.06036 34 ft 0 kts 45°
2026-04-23 10:31 -7.90162 110.06038 34 ft 0 kts 65°